{"data":{"norad_id":67347,"epoch":"2026-05-25T01:37:59.734272Z","epoch_age_seconds":79321,"freshness":"FRESH","line1":"1 67347U 26003P   26145.06805248  .00011818  00000+0  43817-3 0  9993","line2":"2 67347  43.0001 155.8389 0000891 272.9362  87.1387 15.27588928 20501","mean_motion":15.27588928,"eccentricity":8.91e-5,"inclination_deg":43.0001,"raan_deg":155.8389,"arg_perigee_deg":272.9362,"mean_anomaly_deg":87.1387,"bstar":0.00043817,"rev_number":2050,"period_min":94.266197771237,"perigee_km":482.41103322683,"apogee_km":483.63369182523,"semimajor_km":6861.159362526,"source":"CELESTRAK","updated_at":"2026-05-25T13:38:21.524786Z"}}